﻿測定場所 (Monitoring sites),日付 (Measurement date),時間 (Measurement time),線量率 最大値 (max) μGy/h,線量率 最小値 (min) μGy/h,線量率 平均値 (average) μGy/h,
八王子 (Hachioji),2014-02-23,23:01～24:00,0.0278,0.0244,0.0262,
八王子 (Hachioji),2014-02-23,22:01～23:00,0.0286,0.0247,0.0266,
八王子 (Hachioji),2014-02-23,21:01～22:00,0.0292,0.0246,0.0264,
八王子 (Hachioji),2014-02-23,20:01～21:00,0.0281,0.0246,0.0263,
八王子 (Hachioji),2014-02-23,19:01～20:00,0.0277,0.0236,0.0261,
八王子 (Hachioji),2014-02-23,18:01～19:00,0.0277,0.0239,0.0255,
八王子 (Hachioji),2014-02-23,17:01～18:00,0.0275,0.0240,0.0254,
八王子 (Hachioji),2014-02-23,16:01～17:00,0.0271,0.0236,0.0256,
八王子 (Hachioji),2014-02-23,15:01～16:00,0.0277,0.0239,0.0257,
八王子 (Hachioji),2014-02-23,14:01～15:00,0.0270,0.0237,0.0255,
八王子 (Hachioji),2014-02-23,13:01～14:00,0.0276,0.0237,0.0256,
八王子 (Hachioji),2014-02-23,12:01～13:00,0.0272,0.0244,0.0256,
八王子 (Hachioji),2014-02-23,11:01～12:00,0.0274,0.0239,0.0257,
八王子 (Hachioji),2014-02-23,10:01～11:00,0.0284,0.0236,0.0257,
八王子 (Hachioji),2014-02-23,09:01～10:00,0.0275,0.0241,0.0258,
八王子 (Hachioji),2014-02-23,08:01～09:00,0.0275,0.0245,0.0260,
八王子 (Hachioji),2014-02-23,07:01～08:00,0.0291,0.0247,0.0265,
八王子 (Hachioji),2014-02-23,06:01～07:00,0.0280,0.0249,0.0264,
八王子 (Hachioji),2014-02-23,05:01～06:00,0.0274,0.0243,0.0262,
八王子 (Hachioji),2014-02-23,04:01～05:00,0.0296,0.0247,0.0264,
八王子 (Hachioji),2014-02-23,03:01～04:00,0.0275,0.0241,0.0261,
八王子 (Hachioji),2014-02-23,02:01～03:00,0.0282,0.0239,0.0262,
八王子 (Hachioji),2014-02-23,01:01～02:00,0.0279,0.0238,0.0258,
八王子 (Hachioji),2014-02-23,00:01～01:00,0.0266,0.0222,0.0248,
八王子 (Hachioji),2014-02-22,23:01～24:00,0.0268,0.0235,0.0249,
八王子 (Hachioji),2014-02-22,22:01～23:00,0.0270,0.0222,0.0248,
八王子 (Hachioji),2014-02-22,21:01～22:00,0.0264,0.0232,0.0248,
八王子 (Hachioji),2014-02-22,20:01～21:00,0.0261,0.0227,0.0244,
八王子 (Hachioji),2014-02-22,19:01～20:00,0.0263,0.0226,0.0244,
八王子 (Hachioji),2014-02-22,18:01～19:00,0.0265,0.0226,0.0245,
八王子 (Hachioji),2014-02-22,17:01～18:00,0.0267,0.0225,0.0247,
八王子 (Hachioji),2014-02-22,16:01～17:00,0.0262,0.0233,0.0246,
八王子 (Hachioji),2014-02-22,15:01～16:00,0.0269,0.0223,0.0247,
八王子 (Hachioji),2014-02-22,14:01～15:00,0.0264,0.0229,0.0246,
八王子 (Hachioji),2014-02-22,13:01～14:00,0.0264,0.0232,0.0246,
八王子 (Hachioji),2014-02-22,12:01～13:00,0.0265,0.0229,0.0245,
八王子 (Hachioji),2014-02-22,11:01～12:00,0.0261,0.0224,0.0243,
八王子 (Hachioji),2014-02-22,10:01～11:00,0.0263,0.0227,0.0243,
八王子 (Hachioji),2014-02-22,09:01～10:00,0.0269,0.0227,0.0249,
八王子 (Hachioji),2014-02-22,08:01～09:00,0.0277,0.0242,0.0260,
八王子 (Hachioji),2014-02-22,07:01～08:00,0.0284,0.0244,0.0263,
八王子 (Hachioji),2014-02-22,06:01～07:00,0.0273,0.0233,0.0255,
八王子 (Hachioji),2014-02-22,05:01～06:00,0.0274,0.0234,0.0253,
八王子 (Hachioji),2014-02-22,04:01～05:00,0.0268,0.0231,0.0252,
八王子 (Hachioji),2014-02-22,03:01～04:00,0.0259,0.0226,0.0244,
八王子 (Hachioji),2014-02-22,02:01～03:00,0.0258,0.0224,0.0243,
八王子 (Hachioji),2014-02-22,01:01～02:00,0.0257,0.0228,0.0242,
八王子 (Hachioji),2014-02-22,00:01～01:00,0.0257,0.0227,0.0238,
八王子 (Hachioji),2014-02-21,23:01～24:00,0.0258,0.0222,0.0237,
八王子 (Hachioji),2014-02-21,22:01～23:00,0.0261,0.0221,0.0240,
八王子 (Hachioji),2014-02-21,21:01～22:00,0.0253,0.0224,0.0237,
八王子 (Hachioji),2014-02-21,20:01～21:00,0.0257,0.0223,0.0238,
八王子 (Hachioji),2014-02-21,19:01～20:00,0.0260,0.0227,0.0239,
八王子 (Hachioji),2014-02-21,18:01～19:00,0.0260,0.0220,0.0240,
八王子 (Hachioji),2014-02-21,17:01～18:00,0.0270,0.0223,0.0241,
八王子 (Hachioji),2014-02-21,16:01～17:00,0.0253,0.0222,0.0238,
八王子 (Hachioji),2014-02-21,15:01～16:00,0.0258,0.0218,0.0237,
八王子 (Hachioji),2014-02-21,14:01～15:00,0.0259,0.0222,0.0240,
八王子 (Hachioji),2014-02-21,13:01～14:00,0.0257,0.0220,0.0237,
八王子 (Hachioji),2014-02-21,12:01～13:00,0.0261,0.0224,0.0240,
八王子 (Hachioji),2014-02-21,11:01～12:00,0.0252,0.0225,0.0238,
八王子 (Hachioji),2014-02-21,10:01～11:00,0.0250,0.0214,0.0235,
八王子 (Hachioji),2014-02-21,09:01～10:00,0.0265,0.0230,0.0245,
八王子 (Hachioji),2014-02-21,08:01～09:00,0.0270,0.0230,0.0248,
八王子 (Hachioji),2014-02-21,07:01～08:00,0.0264,0.0228,0.0249,
八王子 (Hachioji),2014-02-21,06:01～07:00,0.0277,0.0234,0.0255,
八王子 (Hachioji),2014-02-21,05:01～06:00,0.0268,0.0235,0.0253,
八王子 (Hachioji),2014-02-21,04:01～05:00,0.0268,0.0239,0.0254,
八王子 (Hachioji),2014-02-21,03:01～04:00,0.0275,0.0233,0.0252,
八王子 (Hachioji),2014-02-21,02:01～03:00,0.0273,0.0228,0.0246,
八王子 (Hachioji),2014-02-21,01:01～02:00,0.0258,0.0214,0.0234,
八王子 (Hachioji),2014-02-21,00:01～01:00,0.0250,0.0219,0.0233,
八王子 (Hachioji),2014-02-20,23:01～24:00,0.0254,0.0219,0.0238,
八王子 (Hachioji),2014-02-20,22:01～23:00,0.0254,0.0225,0.0239,
八王子 (Hachioji),2014-02-20,21:01～22:00,0.0264,0.0226,0.0241,
八王子 (Hachioji),2014-02-20,20:01～21:00,0.0253,0.0222,0.0238,
八王子 (Hachioji),2014-02-20,19:01～20:00,0.0253,0.0219,0.0235,
八王子 (Hachioji),2014-02-20,18:01～19:00,0.0248,0.0216,0.0232,
八王子 (Hachioji),2014-02-20,17:01～18:00,0.0250,0.0216,0.0231,
八王子 (Hachioji),2014-02-20,16:01～17:00,0.0239,0.0211,0.0227,
八王子 (Hachioji),2014-02-20,15:01～16:00,0.0247,0.0214,0.0230,
八王子 (Hachioji),2014-02-20,14:01～15:00,0.0245,0.0215,0.0232,
八王子 (Hachioji),2014-02-20,13:01～14:00,0.0248,0.0214,0.0229,
八王子 (Hachioji),2014-02-20,12:01～13:00,0.0253,0.0211,0.0228,
八王子 (Hachioji),2014-02-20,11:01～12:00,0.0247,0.0208,0.0227,
八王子 (Hachioji),2014-02-20,10:01～11:00,0.0245,0.0201,0.0227,
八王子 (Hachioji),2014-02-20,09:01～10:00,0.0252,0.0218,0.0233,
八王子 (Hachioji),2014-02-20,08:01～09:00,0.0243,0.0217,0.0227,
八王子 (Hachioji),2014-02-20,07:01～08:00,0.0247,0.0214,0.0227,
八王子 (Hachioji),2014-02-20,06:01～07:00,0.0247,0.0210,0.0227,
八王子 (Hachioji),2014-02-20,05:01～06:00,0.0252,0.0206,0.0231,
八王子 (Hachioji),2014-02-20,04:01～05:00,0.0251,0.0207,0.0234,
八王子 (Hachioji),2014-02-20,03:01～04:00,0.0249,0.0220,0.0234,
八王子 (Hachioji),2014-02-20,02:01～03:00,0.0249,0.0208,0.0226,
八王子 (Hachioji),2014-02-20,01:01～02:00,0.0246,0.0212,0.0226,
八王子 (Hachioji),2014-02-20,00:01～01:00,0.0241,0.0211,0.0224,
八王子 (Hachioji),2014-02-19,23:01～24:00,0.0242,0.0206,0.0223,
八王子 (Hachioji),2014-02-19,22:01～23:00,0.0237,0.0205,0.0221,
八王子 (Hachioji),2014-02-19,21:01～22:00,0.0241,0.0208,0.0221,
八王子 (Hachioji),2014-02-19,20:01～21:00,0.0233,0.0207,0.0221,
八王子 (Hachioji),2014-02-19,19:01～20:00,0.0239,0.0204,0.0220,
八王子 (Hachioji),2014-02-19,18:01～19:00,0.0240,0.0207,0.0221,
八王子 (Hachioji),2014-02-19,17:01～18:00,0.0242,0.0199,0.0219,
八王子 (Hachioji),2014-02-19,16:01～17:00,0.0238,0.0195,0.0218,
八王子 (Hachioji),2014-02-19,15:01～16:00,0.0237,0.0204,0.0216,
八王子 (Hachioji),2014-02-19,14:01～15:00,0.0238,0.0198,0.0219,
八王子 (Hachioji),2014-02-19,13:01～14:00,0.0235,0.0200,0.0216,
八王子 (Hachioji),2014-02-19,12:01～13:00,0.0230,0.0197,0.0215,
八王子 (Hachioji),2014-02-19,11:01～12:00,0.0229,0.0196,0.0215,
八王子 (Hachioji),2014-02-19,10:01～11:00,0.0228,0.0202,0.0215,
八王子 (Hachioji),2014-02-19,09:01～10:00,0.0234,0.0200,0.0218,
八王子 (Hachioji),2014-02-19,08:01～09:00,0.0246,0.0205,0.0228,
八王子 (Hachioji),2014-02-19,07:01～08:00,0.0248,0.0212,0.0232,
八王子 (Hachioji),2014-02-19,06:01～07:00,0.0245,0.0209,0.0227,
八王子 (Hachioji),2014-02-19,05:01～06:00,0.0242,0.0200,0.0221,
八王子 (Hachioji),2014-02-19,04:01～05:00,0.0243,0.0198,0.0215,
八王子 (Hachioji),2014-02-19,03:01～04:00,0.0231,0.0191,0.0214,
八王子 (Hachioji),2014-02-19,02:01～03:00,0.0234,0.0199,0.0214,
八王子 (Hachioji),2014-02-19,01:01～02:00,0.0228,0.0190,0.0213,
八王子 (Hachioji),2014-02-19,00:01～01:00,0.0228,0.0198,0.0215,
八王子 (Hachioji),2014-02-18,23:01～24:00,0.0233,0.0203,0.0215,
八王子 (Hachioji),2014-02-18,22:01～23:00,0.0235,0.0195,0.0216,
八王子 (Hachioji),2014-02-18,21:01～22:00,0.0226,0.0197,0.0212,
八王子 (Hachioji),2014-02-18,20:01～21:00,0.0230,0.0192,0.0209,
八王子 (Hachioji),2014-02-18,19:01～20:00,0.0233,0.0193,0.0211,
八王子 (Hachioji),2014-02-18,18:01～19:00,0.0227,0.0193,0.0209,
八王子 (Hachioji),2014-02-18,17:01～18:00,0.0231,0.0196,0.0209,
八王子 (Hachioji),2014-02-18,16:01～17:00,0.0230,0.0194,0.0210,
八王子 (Hachioji),2014-02-18,15:01～16:00,0.0233,0.0195,0.0209,
八王子 (Hachioji),2014-02-18,14:01～15:00,0.0217,0.0186,0.0207,
八王子 (Hachioji),2014-02-18,13:01～14:00,0.0223,0.0190,0.0208,
八王子 (Hachioji),2014-02-18,12:01～13:00,0.0225,0.0192,0.0207,
八王子 (Hachioji),2014-02-18,11:01～12:00,0.0220,0.0184,0.0205,
八王子 (Hachioji),2014-02-18,10:01～11:00,0.0223,0.0195,0.0208,
八王子 (Hachioji),2014-02-18,09:01～10:00,0.0233,0.0191,0.0212,
八王子 (Hachioji),2014-02-18,08:01～09:00,0.0229,0.0198,0.0213,
八王子 (Hachioji),2014-02-18,07:01～08:00,0.0232,0.0202,0.0216,
八王子 (Hachioji),2014-02-18,06:01～07:00,0.0235,0.0199,0.0217,
八王子 (Hachioji),2014-02-18,05:01～06:00,0.0232,0.0204,0.0219,
八王子 (Hachioji),2014-02-18,04:01～05:00,0.0236,0.0205,0.0220,
八王子 (Hachioji),2014-02-18,03:01～04:00,0.0232,0.0196,0.0213,
八王子 (Hachioji),2014-02-18,02:01～03:00,0.0234,0.0199,0.0216,
八王子 (Hachioji),2014-02-18,01:01～02:00,0.0227,0.0199,0.0214,
八王子 (Hachioji),2014-02-18,00:01～01:00,0.0225,0.0194,0.0209,
八王子 (Hachioji),2014-02-17,23:01～24:00,0.0223,0.0195,0.0207,
八王子 (Hachioji),2014-02-17,22:01～23:00,0.0221,0.0191,0.0208,
八王子 (Hachioji),2014-02-17,21:01～22:00,0.0222,0.0183,0.0205,
八王子 (Hachioji),2014-02-17,20:01～21:00,0.0221,0.0191,0.0207,
八王子 (Hachioji),2014-02-17,19:01～20:00,0.0222,0.0187,0.0206,
八王子 (Hachioji),2014-02-17,18:01～19:00,0.0234,0.0186,0.0205,
八王子 (Hachioji),2014-02-17,17:01～18:00,0.0218,0.0191,0.0205,
八王子 (Hachioji),2014-02-17,16:01～17:00,0.0217,0.0189,0.0202,
八王子 (Hachioji),2014-02-17,15:01～16:00,0.0215,0.0185,0.0202,
八王子 (Hachioji),2014-02-17,14:01～15:00,0.0214,0.0185,0.0198,
八王子 (Hachioji),2014-02-17,13:01～14:00,0.0215,0.0184,0.0197,
八王子 (Hachioji),2014-02-17,12:01～13:00,0.0209,0.0182,0.0196,
八王子 (Hachioji),2014-02-17,11:01～12:00,0.0211,0.0180,0.0196,
八王子 (Hachioji),2014-02-17,10:01～11:00,0.0209,0.0182,0.0196,
八王子 (Hachioji),2014-02-17,09:01～10:00,0.0207,0.0185,0.0197,
八王子 (Hachioji),2014-02-17,08:01～09:00,0.0211,0.0183,0.0198,
八王子 (Hachioji),2014-02-17,07:01～08:00,0.0213,0.0182,0.0201,
八王子 (Hachioji),2014-02-17,06:01～07:00,0.0221,0.0191,0.0205,
八王子 (Hachioji),2014-02-17,05:01～06:00,0.0223,0.0186,0.0205,
八王子 (Hachioji),2014-02-17,04:01～05:00,0.0216,0.0183,0.0201,
八王子 (Hachioji),2014-02-17,03:01～04:00,0.0218,0.0182,0.0199,
八王子 (Hachioji),2014-02-17,02:01～03:00,0.0212,0.0182,0.0196,
八王子 (Hachioji),2014-02-17,01:01～02:00,0.0210,0.0183,0.0195,
八王子 (Hachioji),2014-02-17,00:01～01:00,0.0209,0.0184,0.0197,
